Regional Weather Roundup
Issued by NWS Grand Forks, ND

Home | Current Version | Previous Version | Text Only | Print | Product List | Glossary On
Versions: 1 2 3 4 5 6 7 8 9 10 11 12 13 14 15 16 17 18 19 20 21 22 23 24 25 26 27 28 29 30 31 32 33 34 35 36 37 38 39 40 41 42 43 44 45 46 47 48 49 50
000
ASUS43 KFGF 292331
RWRFGF
PRAIRIE TO PINES  WEATHER ROUNDUP
NATIONAL WEATHER SERVICE EASTERN NORTH DAKOTA/GRAND FORKS ND
600 PM CDT SUN MAY 29 2016

 **SATELLITE DATA USED TO AUGMENT SKY COVER AT AUTOMATED STATIONS**
 *****  WEATHER ACROSS EASTERN NORTH DAKOTA  *****

CITY           SKY/WX    TMP DP  RH WIND       PRES   REMARKS
GRAND FORKS    MOSUNNY   73  49  42 NW8       29.90F
GRAND FRKS AFB SUNNY     76  43  31 NW13G21   29.91F
GRAND FRKS NWS   N/A     75 N/A N/A NW14        N/A
DEVILS LAKE    MOSUNNY   74  40  29 W16       29.94F
FARGO          SUNNY     79  43  27 NW13      29.92F
WAHPETON ARPT  PTCLDY    77  36  22 NW17      29.94S
$$

 ***** WEATHER ACROSS CENTRAL AND WESTERN NORTH DAKOTA  *****

CITY           SKY/WX    TMP DP  RH WIND       PRES   REMARKS
BISMARCK       MOSUNNY   80  45  28 W6        29.94F
MINOT          MOSUNNY   78  38  23 W8        29.93F
JAMESTOWN      MOSUNNY   75  44  33 NW13G21   29.94F
MINOT AFB      MOSUNNY   74  38  27 W13       29.91F
GARRISON         N/A     75  40  28 VRB3G22   29.94F
WILLISTON      SUNNY     78  33  19 W14       29.93F
DICKINSON      SUNNY     77  32  19 W10       29.93F
HETTINGER      PTSUNNY   74  45  35 SE3       29.97F
$$

 *****  OTHER AIRPORT OBSERVATIONS IN OUR AREA  *****

CITY           SKY/WX    TMP DP  RH WIND       PRES   REMARKS
WALHALLA       FAIR      72  68  88 W10G18    29.90S
GRAFTON AIRPOR FAIR      73  52  46 NW7       29.92S
VALLEY CITY AR FAIR      75  41  29 W13G24    29.96S
CANDO          FAIR      73  39  29 W15       29.94F
CAVALIER APRT  FAIR      72  52  49 NW8       29.90S
GWINNER        FAIR      79  45  29 W14G21    29.95F
ROLLA          FAIR      72  34  25 NW9       29.94S
 ***** THE ABOVE OBSERVATIONS ARE NON NWS ARE NOT QUALITY
       CONTROLLED AND MAY MIS-REPORT RAIN FOR SNOW...
$$

  *****  WEATHER ACROSS NORTHERN MINNESOTA  *****

CITY           SKY/WX    TMP DP  RH WIND       PRES   REMARKS
FLAG ISLAND    MOSUNNY   64  54  68 NW15      29.86S
WARROAD        SUNNY     70  55  60 W12G17    29.88F
ROSEAU         SUNNY     70  55  60 W13G22    29.89S
HALLOCK        MOSUNNY   72  48  43 NW13      29.89F
THF RVR FALLS  SUNNY     72  52  49 W12       29.93S
BAUDETTE       MOSUNNY   67  54  63 W12       29.88
WASKISH        SUNNY     68  57  68 SW10      29.90S
CROOKSTON      MOSUNNY   73  52  46 N12       29.91S
STEPHEN NDAWN    N/A     72  54  53 W7          N/A
GREENBUSH NDAW   N/A     70  54  56 W13         N/A
$$
  *****  WEATHER ACROSS CENTRAL AND WEST MINNESOTA  *****

CITY           SKY/WX    TMP DP  RH WIND       PRES   REMARKS
FOSSTON        MOSUNNY   70  52  52 W7        29.94S
BEMIDJI        MOSUNNY   70  48  45 W14G24    29.92F
PARK RAPIDS    MOSUNNY   72  51  47 NW13G22   29.94F
ELBOW LAKE     FAIR      75  46  35 NW8       29.96S
WADENA         MOSUNNY   72  54  53 NW10      29.95R
DETROIT LAKES  SUNNY     72  50  46 NW12      29.95S
MOORHEAD       SUNNY     75  46  35 NW10      29.93S
FERGUS FALLS   SUNNY     75  45  33 NW12G23   29.91S
MORRIS MN      SUNNY     75  46  35 NW14      29.95S
STAPLES        PTSUNNY   70  50  49 NW10      29.94S
$$
  *****  WEATHER ELSEWHERE ACROSS MINNESOTA  *****

CITY           SKY/WX    TMP DP  RH WIND       PRES   REMARKS
DULUTH         MOSUNNY   69  52  54 NW15G24   29.90R
INTRNTL FALLS  CLOUDY    66  55  67 W9        29.87F
ELY            PTSUNNY   63  54  72 W14G20    29.88R
CLOQUET        MOSUNNY   70  52  52 W10G18    29.91R
WHEATON        SUNNY     81  46  30 W15       29.96S
BRAINERD       MOSUNNY   72  51  47 NW13      29.93S
HIBBING        PTSUNNY   67  54  63 W12G17    29.90F
ALEXANDRIA     PTSUNNY   74  50  42 NW12      29.97S
SAINT CLOUD    SUNNY     76  52  43 W17G23    29.94S
MINNEAPOLIS    CLOUDY    78  55  44 W10       29.93S
$$

  *****  WEATHER ACROSS SOUTH DAKOTA  *****

CITY           SKY/WX    TMP DP  RH WIND       PRES   REMARKS
SIOUX FALLS    SUNNY     78  49  35 NW5       30.01F
BROOKINGS      SUNNY     76  49  38 NW10      30.00F
WATERTOWN      SUNNY     77  45  32 NW12      29.99F
HURON          SUNNY     77  49  37 CALM      29.99F
SISSETON         N/A     81  41  24 N14       29.94F
ABERDEEN       SUNNY     80  44  27 VRB6      29.97F
MITCHELL       SUNNY     78  47  33 W6        30.01F
PIERRE         SUNNY     77  51  40 SE13      29.96F
MOBRIDGE       LGT RAIN  64  55  72 SE8       29.98F
RAPID CITY     MOSUNNY   72  53  51 E10       29.98F
$$

  *****  SOME WEATHER IN NEARBY STATES *****

CITY           SKY/WX    TMP DP  RH WIND       PRES   REMARKS
GLASGOW MT     SUNNY     75  36  24 SW15G22   29.92F
GREAT FALLS MT MOSUNNY   67  35  30 W16G24    29.94F
CHEYENNE WY    PTSUNNY   68  36  30 N9        30.13S
SCOTTSBLUFF NE PTSUNNY   76  45  33 SE5       30.02F
OMAHA NE       MOSUNNY   87  56  34 N5        29.98F
DES MOINES IA  MOSUNNY   83  52  34 W8        30.00F
DAVENPORT IA   SUNNY     81  55  40 W16       30.01F
CHICAGO IL     MOSUNNY   77  58  51 W13G23    29.97F
EAU CLAIRE WI  MOSUNNY   75  56  51 W13       29.92F
LA CROSSE WI   PTSUNNY   76  63  64 W6        29.93S
$$

  *****  SOME NATIONAL WEATHER *****

CITY           SKY/WX    TMP DP  RH WIND       PRES   REMARKS
LA GUARDIA NY  PTSUNNY   76  70  82 S18G24    30.05F
RALEIGH NC     CLOUDY    70  67  90 N6        30.02F
ATLANTA GA     MOSUNNY   88  58  36 NW12      30.02F
NEW ORLEANS LA PTSUNNY   89  65  44 N6        30.03F HX  91
OKLAHOMA CITY  PTSUNNY   84  62  47 SE9       30.01F
ALBUQUERQUE NM MOSUNNY   85  15   7 S15G25    30.03F
SALT LAKE CITY PTSUNNY   78  33  19 CALM      29.98F
LOS ANGELES CA MOSUNNY   66  54  65 W16       29.98F
BOISE ID       CLOUDY    78  30  17 N12       29.94F
SEATTLE WA     PTSUNNY   63  46  54 N16       30.18S
$$

*** WEATHER ACROSS MANITOBA...SASKATCHEWAN AND ONTARIO ***
                ***ONTARIO***

CITY           SKY/WX    TMP DP  RH WIND       PRES   REMARKS
GERALDTON      DRZL/FOG  55  55 100 NW8       29.73S VSB 1
THUNDER BAY    LGT RAIN  61  61 100 VRB6      29.76R
SIOUX LOOKOUT  CLOUDY    59  52  77 NW7       29.81S
TORONTO        CLOUDY    81  63  54 SW15      29.92F
BIG TROUT LK   LGT RAIN  46  41  81 NE8       29.90F
PICKLE LAKE    DRIZZLE   48  46  93 N5        29.80S FOG
DRYDEN         PTSUNNY   57  54  88 W14G20    29.83R
KENORA         PTSUNNY   59  54  82 W8        29.87S
$$
                *** MANITOBA***

CITY           SKY/WX    TMP DP  RH WIND       PRES   REMARKS
BRANDON        MOSUNNY   73  45  35 NW15      29.89F
DAUPHIN        MOSUNNY   68  50  52 CALM      29.87F
ISLAND LAKE    LGT RAIN  57  52  82 SE6       29.91S
PILOT MOUND      N/A     70  43  37 W9          N/A
THE PAS        DRIZZLE   50  46  87 CALM      29.92F
THOMPSON       CLOUDY    52  46  82 NE9       29.96S
WINNIPEG       MOSUNNY   70  52  52 NW13      29.88F
LYNN LAKE      CLOUDY    48  46  93 E12       29.99S
CHURCHILL      PTSUNNY   32  28  86 NE15      30.18S WCI  22
GILLAM         PTSUNNY   46  43  87 NE9       30.03S
$$
                ***SASKATCHEWAN***

CITY           SKY/WX    TMP DP  RH WIND       PRES   REMARKS
ESTEVAN        MOSUNNY   73  39  29 SW16      29.91F
KINDERSLEY     PTSUNNY   70  37  30 S7        29.84F
LLOYDMINSTER   PTSUNNY   66  46  48 E6        29.87S
PRINCE ALBERT  PTSUNNY   55  48  76 E7        29.89S
REGINA         MOSUNNY   70  39  32 W10G21    29.88F
YORKTON        PTSUNNY   66  45  45 NE7       29.85F
N. BATTLEFORD  SUNNY     66  45  45 NW9       29.88F
LA RONGE       PTSUNNY   57  43  58 SE9       29.94S
SASKATOON      MOSUNNY   68  45  42 N6        29.87S
SWIFT CURRENT  MOSUNNY   68  39  34 W14G21    29.87F
$$
NOTE: THESE ARE AUTOMATED STATIONS WITH LIMITED QUALITY CONTROL
      "FAIR" INDICATES FEW OR NO CLOUDS BELOW 12,000 FEET WITH NO
      SIGNIFICANT WEATHER AND/OR OBSTRUCTIONS TO VISIBILITY.
      SKY/WX - SKY CONDITION AND SIGNIFICANT WEATHER.
      TMP - AIR TEMPERATURE.    DP   - DEWPOINT TEMPERATURE.
      RH  - RELATIVE HUMIDITY.  PRES - PRESSURE.
      HX  - HEAT INDEX.         WCI  - WIND CHILL INDEX.
$



USA.gov is the U.S. government's official web portal to all federal, state and local government web resources and services.